Meteo Giornale » Osservazioni meteo Russia » Kursk
ore: 00:30 - Osservazioni Meteo Kursk
Lat. 51° 45' N Lon. 36° 17' E Alt. 209 metri s.l.m.
17 °C
Sereno
Temp. 24 Ore
14 °C
28 °C
Sud/Sud-Est
10.8 Km/h
Dew point 10 °C
Umidità 63 %
Visibilità 10 Km
Il sole sorge alle ore 05:48
Il sole tramonta alle ore 19:20
| Data e Ora | Cielo e Fenomeni | T °C | DP °C | Um. % | Pres. hPa | Vis. km | Vento km/h | |
|---|---|---|---|---|---|---|---|---|
| Oggi h: 00:30 | Sereno | 17 | 10 | 63 | 1016 | 10 | S/SE 10.8 | |
| Oggi h: 00:00 | Sereno | 17 | 9 | 59 | 1016 | 10 | S/SE 10.8 | |
| Ieri h: 23:30 | Sereno | 18 | 10 | 59 | 1016 | 10 | S 10.8 | |
| Ieri h: 23:00 | Sereno | 18 | 10 | 59 | 1016 | 10 | S 14.4 | |
| Ieri h: 22:30 | Sereno | 16 | 11 | 72 | 1016 | 10 | S/SE 10.8 | |
| Ieri h: 22:00 | Foschia | 17 | 11 | 67 | 1016 | 5 | S/SE 14.4 | |
| Ieri h: 21:30 | Sereno | 17 | 11 | 67 | 1016 | 10 | S/SE 14.4 | |
| Ieri h: 21:00 | Sereno | 17 | 11 | 67 | 1017 | 10 | S/SE 14.4 | |
| Ieri h: 20:30 | Sereno | 18 | 11 | 63 | 1016 | 10 | SE 18 | |
| Ieri h: 20:00 | Sereno | 19 | 11 | 59 | 1016 | 10 | SE 14.4 | |
| Ieri h: 19:30 | Sereno | 20 | 11 | 56 | 1016 | 10 | S/SE 14.4 | |
| Ieri h: 19:00 | Sereno | 22 | 11 | 49 | 1016 | 10 | S/SE 10.8 | |
| Ieri h: 18:30 | Sereno | 24 | 11 | 43 | 1016 | 10 | S/SE 10.8 | |
| Ieri h: 18:00 | Sereno | 26 | 10 | 36 | 1017 | 10 | S/SO 14.4 | |
| Ieri h: 17:30 | Sereno | 27 | 10 | 34 | 1017 | 10 | S/SO 21.6 | |
| Ieri h: 17:00 | Sereno | 27 | 10 | 34 | 1017 | 10 | S 18 | |
| Ieri h: 16:30 | Sereno | 27 | 10 | 34 | 1017 | 10 | S/SO 18 | |
| Ieri h: 16:00 | Sereno | 27 | 9 | 32 | 1017 | 10 | SO 21.6 | |
| Ieri h: 15:30 | Sereno | 28 | 9 | 30 | 1017 | 10 | S/SO 18 | |
| Ieri h: 15:00 | Sereno | 26 | 9 | 34 | 1018 | 10 | S/SO 14.4 | |
| Ieri h: 14:30 | Sereno | 27 | 10 | 34 | 1018 | 10 | S/SO 21.6 | |
| Ieri h: 14:00 | Sereno | 25 | 10 | 38 | 1018 | 10 | S 14.4 | |
| Ieri h: 13:30 | Sereno | 23 | 10 | 43 | 1018 | 10 | S 14.4 | |
| Ieri h: 13:00 | Sereno | 23 | 11 | 46 | 1018 | 10 | S 10.8 | |
| Ieri h: 12:30 | Sereno | 22 | 11 | 49 | 1018 | 10 | S 10.8 | |
| Ieri h: 12:00 | Sereno | 22 | 11 | 49 | 1018 | 10 | S 14.4 | |
| Ieri h: 11:30 | Sereno | 23 | 11 | 46 | 1018 | 10 | S/SO 14.4 | |
| Ieri h: 11:00 | Sereno | 23 | 11 | 46 | 1018 | 10 | S/SO 14.4 | |
| Ieri h: 10:30 | Sereno | 23 | 10 | 43 | 1018 | 10 | S 10.8 | |
| Ieri h: 10:00 | Sereno | 22 | 10 | 46 | 1018 | 10 | N 7.2 | |
| Ieri h: 09:30 | Sereno | 20 | 10 | 52 | 1018 | 10 | S/SE 10.8 | |
| Ieri h: 09:00 | Sereno | 20 | 9 | 49 | 1018 | 10 | S 10.8 | |
| Ieri h: 08:30 | Sereno | 19 | 9 | 52 | 1018 | 10 | S 10.8 | |
| Ieri h: 08:00 | Sereno | 17 | 9 | 59 | 1018 | 10 | S/SE 14.4 | |
| Ieri h: 07:30 | Sereno | 16 | 9 | 63 | 1018 | 10 | S/SE 14.4 | |
| Ieri h: 07:00 | Sereno | 14 | 9 | 71 | 1018 | 10 | SE 14.4 | |
| Ieri h: 06:30 | Sereno | 14 | 9 | 71 | 1018 | 10 | S/SE 14.4 | |
| Ieri h: 06:00 | Sereno | 14 | 9 | 71 | 1018 | 10 | SE 18 | |
| Ieri h: 05:30 | Sereno | 15 | 10 | 72 | 1018 | 10 | S/SE 14.4 | |
| Ieri h: 05:00 | Sereno | 15 | 10 | 72 | 1018 | 10 | S/SE 14.4 | |
| Ieri h: 04:30 | Sereno | 15 | 10 | 72 | 1019 | 10 | SE 14.4 | |
| Ieri h: 04:00 | Sereno | 14 | 10 | 76 | 1019 | 10 | S/SE 14.4 | |
| Ieri h: 03:30 | Sereno | 14 | 10 | 76 | 1019 | 10 | SE 14.4 | |
| Ieri h: 03:00 | Sereno | 14 | 10 | 76 | 1019 | 10 | S/SE 14.4 | |
| Ieri h: 02:30 | Sereno | 14 | 10 | 76 | 1019 | 10 | SE 10.8 | |
| Ieri h: 02:00 | Sereno | 15 | 10 | 72 | 1019 | 10 | S/SE 10.8 | |



